SCP
0 0 0 0 0 0 0 0 0 0 0 0 0 0 0 0 0 0 0 0 0 0 0 0 0 0 0 0 0 0 0 0 0 0 0 0 0 0 0 0 0 0 0 0 0 0 0 0 0
0 0 0 0 0 0 0 0 0 0 0 0 0 0 0 0 0 0 0 0 0 0 0 0 0 0 0 0 0 0 0 0 0 0 0 0 0 0 0 0 0 0 0 0 0 0 0 0 0
0 0 0 0 0 0 0 0 0 0 0 0 0 0 0 0 0 0 0 0 0 0 0 0 0 0 0 0 0 0 0 0 0 0 0 0 0 0 0 0 0 0 0 0 0 0 0 0 0
0 0 0 0 0 0 0 0 0 0 0 0 0 0 0 0 0 0 0 0 0 0 0 0 0 0 0 0 0 0 0 0 0 0 0 0 0 0 0 0 0 0 0 0 0 0 0 0 0
0 0 0 0 0 0 0 0 0 0 0 0 0 0 0 0 0 0 0 0 0 0 0 0 0 0 0 0 0 0 0 0 0 0 0 0 0 0 0 0 0 0 0 0 0 0 0 0 0
0 0 0 0 0 0 0 0 0 0 0 0 0 0 0 0 0 0 0 0 0 0 0 0 0 0 0 0 0 0 0 0 0 0 0 0 0 0 0 0 0 0 0 0 0 0 0 0 0
-0 0 0 0 0 0 0 0 0 0 0 0 0 0 0 0 0 0 0 0 0 0 0 0 0 0 0 0 0 0 0 0 0 0 0 0 0 0 0 0 0 0 0 0 0 0 0 0 0
0 0 0 0 0 0 0 0 0 0 0 0 0 0 0 0 0 0 0 0 0 0 0 0 0 0 0 0 0 0 0 0 0 0 0 0 0 0 1 1 1 1 1 1 0 0 0 0 1
0 0 0 0 0 0 0 0 0 0 0 0 0 0 0 0 0 0 0 0 0 0 1 0 0 0 0 0 1 1 1 1 1 1 1 1 1 1 1 1 1 1 1 1 1 1 1 1 1
0 0 0 0 0 0 0 0 0 0 0 0 0 0 0 0 0 0 0 0 0 1 1 1 1 1 0 1 1 1 1 1 1 1 1 1 1 1 1 1 1 1 1 1 1 1 1 1 1
0 0 0 0 0 0 0 0 0 0 0 0 1 0 0 0 0 0 0 0 1 1 1 1 1 1 1 1 1 1 1 1 1 1 1 1 1 1 1 1 2 2 2 1 1 1 1 1 1
0 0 0 0 0 0 0 0 0 0 0 0 0 0 0 1 1 1 1 1 1 1 1 1 1 1 1 1 1 1 1 1 2 2 2 2 2 1 1 1 2 2 2 2 1 1 1 1 1
0 0 0 0 0 0 0 0 0 0 0 0 0 0 1 1 1 1 1 1 1 1 1 1 2 2 2 1 1 1 1 1 2 2 2 2 2 2 2 2 2 2 2 2 2 2 2 1 1
0 0 0 0 0 0 0 0 0 0 0 0 0 0 1 1 1 1 1 2 2 2 2 2 3 3 3 2 2 2 1 1 2 2 2 2 2 2 2 2 2 2 2 2 2 2 2 2 2
0 0 0 0 -0 0 0 0 0 0 0 0 0 0 1 1 1 2 2 2 2 2 3 3 3 3 3 3 2 2 2 2 2 2 2 2 2 2 2 2 2 2 2 2 2 2 2 2 1
0 0 0 0 0 0 0 0 0 0 0 0 0 1 1 1 2 2 3 3 3 3 4 4 4 4 4 3 3 2 2 2 2 2 2 2 2 2 2 2 2 2 2 2 2 1 1 1 1
0 0 0 0 0 0 0 0 0 0 0 0 1 1 1 2 2 3 3 3 3 4 5 5 5 4 4 4 3 2 2 2 2 2 2 2 2 2 2 2 2 2 2 1 1 1 1 1 1
0 0 0 0 0 0 0 0 0 0 0 0 1 1 2 2 3 3 3 3 4 5 6 6 5 5 5 4 3 2 2 2 2 2 2 2 2 1 1 1 1 1 1 1 1 1 1 1 1
0 0 0 0 0 0 0 0 0 0 0 1 1 2 2 3 3 3 3 3 4 5 6 6 5 5 4 4 3 2 2 2 2 2 2 2 1 1 1 1 1 1 1 1 1 1 1 1 1
0 0 0 0 0 0 0 0 0 0 1 1 1 2 2 3 3 3 3 3 4 5 5 5 5 4 4 3 3 2 2 2 2 2 2 2 1 1 1 1 1 1 1 1 1 1 1 1 1
0 0 0 0 0 0 0 0 0 1 1 1 1 2 2 3 3 3 3 3 3 4 4 4 4 4 3 3 3 2 2 2 2 2 2 2 1 1 1 1 1 1 1 1 1 1 1 1 1
0 0 0 0 0 0 0 0 0 1 1 1 1 1 2 2 2 2 2 3 3 3 3 3 4 4 3 3 3 3 2 2 2 2 2 2 2 1 1 1 1 1 1 0 0 1 1 0 0
0 0 0 0 0 0 0 0 0 1 1 1 1 1 1 1 1 2 2 2 2 2 3 3 4 4 3 3 3 3 3 2 2 2 2 2 2 1 1 1 1 1 1 1 0 0 0 0 0
0 0 0 0 0 0 0 0 0 1 1 1 1 1 1 1 1 1 1 1 2 2 2 3 3 4 4 3 3 3 3 3 3 2 2 2 2 2 1 1 1 1 1 1 1 0 0 0 0
0 0 0 0 0 0 0 0 0 1 1 1 1 1 1 1 1 1 1 1 1 1 2 2 3 4 4 3 3 3 3 3 3 3 2 2 2 2 2 2 2 1 1 1 1 1 0 0 0
0 0 0 0 0 0 0 0 1 1 1 1 1 1 1 1 1 1 1 1 1 1 1 2 2 3 3 3 3 3 3 3 3 3 2 2 2 2 2 2 2 2 1 1 1 1 1 0 0
0 0 0 0 0 0 0 0 1 1 0 0 0 0 0 0 0 0 0 0 1 1 1 1 1 2 2 2 2 2 2 2 2 2 2 2 2 2 2 2 2 2 1 1 1 1 1 1 1
0 0 0 0 0 0 0 0 1 1 1 0 0 0 0 0 0 0 0 0 0 0 0 0 1 1 1 1 1 1 1 1 2 2 2 2 2 2 2 2 2 2 2 1 1 1 1 1 1
0 0 0 0 0 0 0 0 1 1 1 0 0 0 0 0 0 0 0 0 0 0 0 0 0 0 0 0 1 1 1 1 1 1 1 1 2 2 2 2 2 1 1 1 1 1 1 1 1
0 0 0 0 0 0 0 1 1 1 1 0 0 0 0 0 0 0 0 0 0 0 0 0 0 0 0 0 0 0 0 1 1 1 1 1 1 1 1 1 1 1 1 1 1 1 1 1 0
Wind_Speed
9 11 10 7 7 6 5 12 13 12 11 10 8 8 14 16 11 11 12 17 24 21 19 18 16 15 14 13 13 13 13 12 11 11 10 9 9 9 8 8 8 8 8 8 8 7 7 7 7
9 13 10 7 5 2 8 11 11 10 8 7 8 9 14 15 14 14 14 19 24 20 17 16 17 15 14 13 13 12 12 12 11 10 9 9 8 8 8 7 7 7 7 7 6 6 6 6 5
11 15 8 7 3 2 8 10 8 10 8 7 11 13 12 10 11 13 16 20 22 19 17 18 18 16 15 14 13 12 12 11 10 10 9 8 8 7 7 6 6 5 5 5 5 5 5 5 4
9 8 8 7 4 4 7 7 7 9 9 9 10 12 11 8 10 15 17 20 20 19 18 18 18 16 14 13 12 12 11 10 10 9 8 7 7 6 6 6 5 5 5 5 5 5 5 5 5
10 8 10 3 4 2 5 7 8 9 8 10 15 15 11 10 15 17 16 18 18 19 18 18 17 16 14 13 12 11 11 10 9 9 8 7 6 6 6 6 6 5 5 5 5 6 6 6 6
8 10 9 3 3 3 4 5 6 7 7 9 15 15 11 12 14 15 16 15 18 19 18 16 17 16 14 13 12 11 10 10 9 9 8 7 7 7 7 7 7 7 7 7 7 7 7 8 8
11 13 14 9 5 4 3 2 5 5 6 8 10 15 12 13 13 14 13 13 17 20 18 15 14 14 14 13 12 11 10 10 9 9 9 8 8 9 9 9 9 9 9 9 9 9 9 9 10
10 12 18 12 4 1 2 1 4 6 6 3 3 11 13 16 15 14 12 11 14 18 17 15 14 13 12 12 13 13 12 11 10 10 10 10 11 11 13 12 13 13 12 11 11 11 11 11 11
14 13 15 12 4 1 2 2 3 6 7 3 6 12 19 20 18 15 11 11 11 14 15 15 15 13 12 13 14 14 13 12 11 11 13 11 9 11 12 17 17 16 15 14 13 13 13 12 13
11 12 16 11 5 4 1 2 2 3 5 5 10 16 19 19 17 15 13 13 12 11 13 12 14 13 12 10 11 10 10 11 10 9 10 9 8 8 9 9 17 18 18 16 15 14 13 11 9
15 17 16 14 9 8 9 6 3 5 3 8 10 9 14 17 16 15 14 13 11 9 10 10 11 9 9 6 9 6 6 7 11 11 9 7 6 6 6 4 8 11 13 10 11 12 9 9 8
17 16 15 14 11 9 11 10 7 3 7 12 15 12 12 16 16 16 13 12 13 11 11 10 11 7 3 2 4 4 4 5 6 8 9 6 4 3 3 2 2 4 5 7 7 5 9 9 9
15 14 15 15 12 11 12 13 11 4 6 11 16 18 16 16 16 15 15 14 14 11 10 8 8 8 5 2 1 2 2 2 2 2 4 4 3 3 3 2 2 3 3 3 4 4 5 5 6
14 16 15 14 14 13 13 14 13 10 6 10 13 16 17 16 15 15 14 13 14 13 11 10 9 8 6 3 2 2 3 1 2 1 2 2 2 2 2 2 2 3 4 4 3 4 4 4 4
14 15 17 18 18 17 16 16 15 12 6 7 10 12 14 13 13 13 13 11 13 13 11 9 9 8 7 5 4 4 4 3 2 1 2 2 2 2 2 3 3 3 4 4 4 5 4 5 5
15 16 18 20 20 18 15 15 11 7 3 3 4 5 7 7 9 9 11 9 8 9 9 9 9 9 8 6 3 3 3 2 1 1 1 0 0 1 2 3 3 3 3 3 4 4 4 4 5
16 18 19 19 17 13 11 11 6 3 3 2 4 5 5 7 5 6 9 10 8 7 8 7 5 7 7 6 4 4 3 2 2 1 0 2 1 2 2 2 3 3 3 3 5 4 3 4 5
12 12 14 13 4 3 6 10 7 4 3 3 5 4 4 6 7 6 6 7 7 8 8 7 5 5 6 5 4 3 3 2 2 1 2 2 1 2 2 3 3 3 3 3 3 4 4 4 4
12 13 14 6 4 2 7 10 7 3 3 4 2 2 5 5 7 7 7 6 8 7 7 7 6 4 3 3 2 2 2 2 1 1 3 1 1 1 2 3 2 3 3 3 4 4 5 4 4
10 11 12 9 4 4 10 13 9 4 3 1 1 4 5 6 8 8 7 7 7 6 5 5 5 5 3 2 2 1 1 2 2 1 2 2 1 1 3 2 3 3 3 5 4 3 3 4 3
8 9 9 9 7 8 13 14 10 5 1 0 1 3 5 6 7 7 6 5 7 7 6 4 4 5 3 2 2 2 1 2 2 1 2 2 1 2 2 2 2 3 4 3 4 4 5 4 4
6 9 11 11 11 12 13 11 7 6 6 5 5 8 10 9 9 7 6 5 5 5 5 4 4 3 1 1 2 2 2 3 2 2 2 2 2 3 3 3 3 2 3 4 5 3 4 4 5
7 8 11 14 14 15 14 12 2 8 8 8 6 9 11 9 8 8 8 7 7 6 5 5 4 3 2 2 3 3 4 3 3 2 2 2 3 4 4 4 3 2 3 4 3 4 4 4 5
9 11 13 10 9 11 11 11 4 7 9 9 8 10 10 9 8 8 9 9 9 9 8 7 5 4 3 3 4 4 5 6 6 6 5 3 3 4 5 4 3 3 3 3 3 4 5 5 5
8 11 8 6 3 4 4 7 1 7 9 10 11 11 11 10 8 9 10 11 10 11 11 10 10 7 5 5 5 5 5 6 6 6 5 5 4 4 4 3 2 3 4 4 4 4 5 5 6
8 10 9 10 9 6 11 6 5 8 10 10 10 10 10 11 10 10 11 10 10 11 11 10 9 9 8 8 7 6 5 5 5 6 6 6 5 5 3 2 3 4 5 5 4 4 5 5 5
8 8 12 11 13 12 1 6 7 8 7 6 7 8 9 9 9 9 10 10 9 9 9 10 9 8 7 8 8 6 6 6 6 7 6 6 5 6 6 5 4 5 5 5 5 5 6 5 5
7 9 7 7 9 12 10 4 4 6 3 0 4 7 8 7 8 8 7 7 7 7 7 7 7 7 6 7 7 8 7 7 7 7 7 7 7 7 7 7 7 6 6 6 6 5 6 5 5
9 9 7 7 8 11 12 5 5 7 4 2 5 7 7 7 8 8 7 7 7 7 8 7 7 7 6 6 6 6 7 7 7 6 6 6 7 8 7 7 7 8 8 7 6 7 7 6 5
7 8 7 7 8 10 11 4 7 7 6 6 7 7 8 8 9 9 8 8 8 8 8 8 8 8 7 7 7 7 7 7 7 8 7 6 7 7 8 8 8 9 9 8 7 8 7 5 5
Wind_Direction
223 228 224 241 247 247 60 59 50 52 58 62 45 30 56 55 56 86 120 123 116 123 132 135 134 135 135 136 138 138 139 138 136 135 133 130 126 122 118 115 112 111 110 108 106 105 103 101 101
251 243 231 243 263 314 69 69 62 52 49 68 72 52 74 70 83 109 121 118 119 127 138 137 138 139 139 140 141 143 144 143 142 141 139 137 134 131 127 123 121 120 120 120 119 116 113 111 112
255 255 258 245 232 74 76 77 87 85 65 59 77 63 55 77 93 110 121 125 124 132 136 136 145 144 145 145 147 149 150 149 149 149 148 147 145 142 138 136 135 135 136 137 138 137 136 135 137
258 243 229 260 318 56 78 87 87 86 83 71 79 81 77 63 98 118 132 128 128 135 135 142 148 148 150 151 152 154 155 156 157 158 159 159 159 159 158 158 159 160 162 164 165 165 165 167 173
250 254 251 276 326 24 84 84 85 83 76 82 86 88 90 92 108 128 137 133 139 137 134 145 151 152 154 157 159 162 163 165 167 169 172 177 181 185 189 188 188 190 193 194 194 195 194 195 198
271 266 278 274 248 261 93 91 90 95 109 110 108 104 101 117 128 142 141 146 142 134 135 143 152 156 160 163 167 170 173 176 179 183 188 195 204 211 216 217 215 213 215 217 217 216 215 214 214
274 292 294 278 232 222 106 101 105 98 76 73 103 111 124 137 144 143 144 155 139 132 134 147 155 161 166 171 175 179 183 187 192 198 204 211 219 225 228 229 229 226 226 228 230 230 229 228 225
280 291 292 289 282 249 130 207 113 114 91 62 97 118 139 145 150 144 159 153 136 133 140 152 157 163 171 177 183 187 191 197 203 210 217 222 228 232 233 231 227 227 227 229 233 236 237 235 233
269 272 278 294 327 261 179 230 124 122 138 137 55 100 134 147 152 150 161 151 141 139 145 156 158 167 178 182 181 187 196 203 208 215 222 227 234 233 226 226 223 220 222 225 230 235 239 239 237
251 266 277 307 327 310 295 254 141 215 142 105 89 106 132 150 154 157 166 162 156 151 155 161 157 170 185 189 164 186 194 196 206 214 209 212 226 244 249 219 213 215 218 223 227 232 237 238 242
257 265 284 302 316 323 310 295 217 229 117 103 107 123 152 159 159 164 174 168 158 162 166 165 154 172 184 175 162 191 196 184 197 215 212 210 221 234 241 217 198 208 215 221 225 225 227 229 231
259 266 284 295 311 311 300 299 290 285 106 118 131 168 186 174 170 172 175 170 160 175 178 170 154 161 190 189 177 185 200 184 196 197 204 211 208 236 261 266 234 203 209 210 226 218 217 224 232
270 271 273 276 278 278 280 279 279 267 133 133 151 172 184 190 177 174 174 175 163 177 180 163 152 154 170 196 269 225 233 227 207 182 191 203 213 228 248 271 285 280 269 242 228 241 240 234 242
284 289 289 285 280 273 269 269 266 250 182 161 170 181 188 189 178 175 173 174 166 177 180 164 161 154 159 176 204 279 277 249 272 261 225 204 222 251 283 284 278 278 285 290 286 283 276 266 253
268 274 275 269 262 256 254 257 258 256 213 191 190 191 193 183 179 175 168 170 171 173 168 155 161 157 161 186 206 226 242 243 223 228 235 226 244 265 271 276 275 272 280 288 282 282 280 272 267
270 262 259 256 248 243 241 256 266 267 207 246 242 209 185 171 177 171 156 157 165 162 149 156 169 162 161 172 190 236 247 272 273 237 232 169 316 305 297 277 273 280 279 273 270 262 265 268 270
247 245 251 255 244 236 237 261 275 261 195 200 237 220 183 157 168 157 150 155 159 138 131 142 147 150 157 167 183 219 228 236 259 246 113 61 17 306 282 279 281 287 280 275 277 277 263 264 263
289 279 255 254 246 211 259 275 273 260 267 233 226 186 163 171 160 156 139 138 134 132 131 133 136 140 151 163 186 216 224 223 224 199 96 63 359 351 350 293 297 302 282 276 278 289 283 267 263
311 310 310 319 43 355 282 277 273 270 272 257 217 146 141 137 125 113 108 107 107 114 132 139 147 149 153 155 194 200 196 229 223 163 117 112 323 10 312 298 322 297 294 302 290 286 288 282 267
287 286 291 299 315 302 282 272 261 239 242 318 75 105 114 120 115 113 119 117 115 113 119 130 145 154 174 162 179 201 222 251 229 155 147 164 119 345 291 2 316 320 316 290 290 299 289 285 282
291 306 313 318 315 277 267 262 250 222 192 185 302 91 91 100 95 105 111 121 130 129 136 151 148 147 172 175 220 227 206 257 257 184 180 150 180 244 274 291 290 309 297 303 320 290 291 296 293
329 332 322 308 293 281 279 271 236 178 138 85 39 44 46 53 70 66 71 64 82 98 123 119 122 118 138 232 266 270 255 260 267 238 221 181 220 233 235 241 255 272 288 293 291 336 324 300 293
311 304 294 288 285 282 281 277 233 125 121 93 67 63 61 40 60 66 56 48 50 51 60 71 78 75 38 346 312 305 295 295 300 295 275 244 239 227 228 223 227 249 270 287 306 306 295 292 288
306 298 286 294 303 293 321 320 258 134 133 124 111 98 92 75 51 54 57 46 38 37 34 36 49 47 19 352 329 318 310 310 310 306 297 272 258 235 225 223 209 235 258 278 281 279 280 275 281
319 303 301 321 316 272 272 270 266 104 113 117 115 108 101 96 79 61 53 47 34 32 25 28 27 23 9 358 343 329 317 310 298 293 290 284 281 270 241 231 207 235 248 257 262 265 269 271 271
299 292 300 311 301 269 197 224 95 76 80 83 89 91 88 83 72 60 53 48 38 33 27 25 25 18 10 2 349 337 328 318 311 314 312 301 294 294 295 253 234 237 245 255 256 266 266 264 266
298 305 316 308 303 308 341 102 75 44 45 72 89 83 72 67 65 57 51 43 33 25 22 15 13 9 5 357 347 339 342 330 320 316 308 304 304 301 305 294 270 256 251 251 253 256 262 267 266
270 298 310 318 318 315 322 82 151 155 164 20 64 66 58 45 47 47 43 37 25 14 9 6 359 354 351 345 340 339 338 331 326 318 313 310 309 307 303 296 286 272 260 250 246 254 257 257 262
319 315 323 316 314 317 319 16 92 133 143 138 73 53 35 22 20 17 17 18 9 360 353 348 340 334 330 327 326 324 320 321 318 311 312 312 308 303 296 289 284 277 269 258 249 252 258 260 267
324 310 312 316 320 310 308 40 64 77 58 39 43 33 20 5 358 356 354 352 346 340 335 329 325 321 317 315 313 310 310 311 310 306 300 299 299 300 298 292 285 278 273 261 254 255 260 262 268